Tracking 19176 objects as of 27-May-2018
HD Live streaming from Space Station
objects crossing your sky now

COSMOS 968

Track COSMOS 968 now!
10-day predictions
COSMOS 968 is classified as:


NORAD ID: 10520
Int'l Code: 1977-119A
Perigee: 766.3 km
Apogee: 791.3 km
Inclination: 74.0 °
Period: 100.3 minutes
Semi major axis: 7149 km
RCS: 2.1356 m2 (large)
Launch date: December 16, 1977
Source: Commonwealth of Independent States (former USSR) (CIS)
Launch site: PLESETSK MISSILE AND SPACE COMPLEX (PKMTR)
aabbcc
Your satellite tracking list
Your tracking list is empty




NASA's NSSDC Master Catalog

Two Line Element Set (TLE):
1 10520U 77119A   18147.15993805  .00000017  00000-0  15003-4 0  9995
2 10520  74.0279 146.2429 0017443   9.9447 350.2047 14.36029152116595
Source of the keplerian elements: AFSPC